This is the latest recevied weather packets stored in our database for station/object SP8C-10. If no packets are shown the sender has not sent any weather packets the latest 10 day(s).
| Time | Temp. | Humidity | Pressure | Rain* | Wind** | Luminosity | Snow |
|---|---|---|---|---|---|---|---|
| 1788722244 | 23.89° C | 35% | 1027.2 hPa | - | - | - | - |
| 1788720444 | 24.44° C | 34% | 1027 hPa | - | - | - | - |
| 1788718644 | 25° C | 34% | 1026.7 hPa | - | - | - | - |
| 1788715043 | 26.11° C | 34% | 1025.9 hPa | - | - | - | - |
| 1788711443 | 26.67° C | 34% | 1025.2 hPa | - | - | - | - |
| 1788707847 | 25.56° C | 35% | 1024.7 hPa | - | - | - | - |
| 1788706047 | 25.56° C | 35% | 1024.6 hPa | - | - | - | - |
| 1788704246 | 25° C | 36% | 1024.4 hPa | - | - | - | - |
| 1788700646 | 24.44° C | 36% | 1024.1 hPa | - | - | - | - |
| 1788698846 | 24.44° C | 36% | 1024.2 hPa | - | - | - | - |
| 1788697046 | 24.44° C | 36% | 1023.9 hPa | - | - | - | - |
| 1788695246 | 24.44° C | 36% | 1023.7 hPa | - | - | - | - |
| 1788693445 | 24.44° C | 36% | 1023.4 hPa | - | - | - | - |
| 1788689845 | 23.89° C | 36% | 1022.8 hPa | - | - | - | - |
| 1788688045 | 23.33° C | 37% | 1022.6 hPa | - | - | - | - |
| 1788686245 | 23.89° C | 37% | 1022.7 hPa | - | - | - | - |
| 1788684445 | 23.33° C | 38% | 1022.2 hPa | - | - | - | - |
| 1788682644 | 22.78° C | 39% | 1022.1 hPa | - | - | - | - |
| 1788679044 | 22.22° C | 41% | 1021.4 hPa | - | - | - | - |
| 1788677244 | 22.22° C | 42% | 1021 hPa | - | - | - | - |
| 1788675444 | 21.67° C | 42% | 1020.8 hPa | - | - | - | - |
| 1788671843 | 21.67° C | 42% | 1020.7 hPa | - | - | - | - |
| 1788670043 | 21.67° C | 42% | 1020.3 hPa | - | - | - | - |
| 1788668243 | 21.67° C | 41% | 1019.8 hPa | - | - | - | - |
| 1788666443 | 21.67° C | 41% | 1019.7 hPa | - | - | - | - |
* Rain since midnight (hover to see other rain measurements)
** Current wind speed in m/s (hover to see current wind gust speed)